Time,TemperatureF,DewpointF,PressureIn,WindDirection,WindDirectionDegrees,WindSpeedMPH,WindSpeedGustMPH,Humidity,HourlyPrecipIn,Conditions,Clouds,dailyrainin,SoftwareType,DateUTC
2013-10-01 00:04:00,56.7,28.4,29.91,North,355,1.0,1.0,34,0.00,,,0.00,WUHU216DAVISVP2,2013-10-01 07:04:00,
2013-10-01 00:09:00,56.1,28.6,29.91,North,355,1.0,1.0,35,0.00,,,0.00,WUHU216DAVISVP2,2013-10-01 07:09:00,
2013-10-01 00:15:00,55.6,28.8,29.91,North,355,2.0,2.0,36,0.00,,,0.00,WUHU216DAVISVP2,2013-10-01 07:15:00,
2013-10-01 00:20:00,55.0,29.0,29.91,North,355,1.0,2.0,37,0.00,,,0.00,WUHU216DAVISVP2,2013-10-01 07:20:00,
2013-10-01 00:25:00,54.2,28.9,29.91,North,355,1.0,2.0,38,0.00,,,0.00,WUHU216DAVISVP2,2013-10-01 07:25:00,
2013-10-01 00:30:00,53.4,28.9,29.91,North,355,1.0,2.0,39,0.00,,,0.00,WUHU216DAVISVP2,2013-10-01 07:30:00,
2013-10-01 00:35:00,52.5,28.7,29.91,North,355,2.0,3.0,40,0.00,,,0.00,WUHU216DAVISVP2,2013-10-01 07:35:00,
2013-10-01 00:40:00,52.3,29.1,29.91,North,355,2.0,3.0,41,0.00,,,0.00,WUHU216DAVISVP2,2013-10-01 07:40:00,
2013-10-01 00:45:00,52.1,28.9,29.91,North,355,1.0,2.0,41,0.00,,,0.00,WUHU216DAVISVP2,2013-10-01 07:45:00,
2013-10-01 00:50:00,51.8,29.3,29.91,North,0,0.0,0.0,42,0.00,,,0.00,WUHU216DAVISVP2,2013-10-01 07:50:00,
2013-10-01 00:55:00,51.5,29.0,29.91,North,355,1.0,1.0,42,0.00,,,0.00,WUHU216DAVISVP2,2013-10-01 07:55:00,
2013-10-01 01:00:00,51.2,28.7,29.91,North,0,0.0,0.0,42,0.00,,,0.00,WUHU216DAVISVP2,2013-10-01 08:00:00,
2013-10-01 01:06:00,51.8,28.7,29.91,North,355,1.0,2.0,41,0.00,,,0.00,WUHU216DAVISVP2,2013-10-01 08:06:00,
2013-10-01 01:11:00,52.3,28.5,29.91,North,355,1.0,1.0,40,0.00,,,0.00,WUHU216DAVISVP2,2013-10-01 08:11:00,
2013-10-01 01:16:00,52.3,29.1,29.91,North,0,0.0,0.0,41,0.00,,,0.00,WUHU216DAVISVP2,2013-10-01 08:16:00,
2013-10-01 01:21:00,51.7,28.6,29.91,North,355,1.0,2.0,41,0.00,,,0.00,WUHU216DAVISVP2,2013-10-01 08:21:00,
2013-10-01 01:26:00,51.3,28.8,29.91,North,355,2.0,2.0,42,0.00,,,0.00,WUHU216DAVISVP2,2013-10-01 08:26:00,
2013-10-01 01:31:00,51.2,28.7,29.91,North,355,2.0,3.0,42,0.00,,,0.00,WUHU216DAVISVP2,2013-10-01 08:31:00,
2013-10-01 01:36:00,51.3,28.8,29.91,North,349,1.0,3.0,42,0.00,,,0.00,WUHU216DAVISVP2,2013-10-01 08:36:00,
2013-10-01 01:41:00,51.9,28.8,29.91,NNW,337,1.0,3.0,41,0.00,,,0.00,WUHU216DAVISVP2,2013-10-01 08:41:00,
2013-10-01 01:46:00,53.3,28.1,29.91,WNW,301,1.0,3.0,38,0.00,,,0.00,WUHU216DAVISVP2,2013-10-01 08:46:00,
2013-10-01 01:51:00,56.2,28.0,29.91,WNW,303,2.0,4.0,34,0.00,,,0.00,WUHU216DAVISVP2,2013-10-01 08:51:00,
2013-10-01 01:56:00,59.9,28.2,29.91,NW,306,3.0,7.0,30,0.00,,,0.00,WUHU216DAVISVP2,2013-10-01 08:56:00,
2013-10-01 02:01:00,61.9,28.2,29.91,NW,306,2.0,4.0,28,0.00,,,0.00,WUHU216DAVISVP2,2013-10-01 09:01:00,
2013-10-01 02:06:00,62.7,28.0,29.91,NW,314,2.0,5.0,27,0.00,,,0.00,WUHU216DAVISVP2,2013-10-01 09:06:00,
2013-10-01 02:11:00,63.1,28.4,29.90,NW,314,3.0,5.0,27,0.00,,,0.00,WUHU216DAVISVP2,2013-10-01 09:11:00,
2013-10-01 02:17:00,63.5,27.8,29.90,NW,307,3.0,5.0,26,0.00,,,0.00,WUHU216DAVISVP2,2013-10-01 09:17:00,
2013-10-01 02:22:00,63.9,28.2,29.90,NW,305,4.0,6.0,26,0.00,,,0.00,WUHU216DAVISVP2,2013-10-01 09:22:00,
2013-10-01 02:27:00,64.4,27.7,29.90,WNW,303,4.0,7.0,25,0.00,,,0.00,WUHU216DAVISVP2,2013-10-01 09:27:00,
2013-10-01 02:32:00,65.0,27.2,29.90,WNW,301,4.0,7.0,24,0.00,,,0.00,WUHU216DAVISVP2,2013-10-01 09:32:00,
2013-10-01 02:37:00,65.3,27.4,29.90,WNW,296,5.0,8.0,24,0.00,,,0.00,WUHU216DAVISVP2,2013-10-01 09:37:00,
2013-10-01 02:42:00,65.5,27.6,29.90,WNW,298,5.0,8.0,24,0.00,,,0.00,WUHU216DAVISVP2,2013-10-01 09:42:00,
2013-10-01 02:47:00,65.6,27.7,29.90,WNW,301,5.0,8.0,24,0.00,,,0.00,WUHU216DAVISVP2,2013-10-01 09:47:00,
2013-10-01 02:53:00,65.8,26.9,29.90,WNW,299,5.0,11.0,23,0.00,,,0.00,WUHU216DAVISVP2,2013-10-01 09:53:00,
2013-10-01 02:58:00,65.8,27.9,29.90,WNW,297,4.0,9.0,24,0.00,,,0.00,WUHU216DAVISVP2,2013-10-01 09:58:00,
2013-10-01 03:03:00,64.9,28.1,29.90,WNW,298,2.0,7.0,25,0.00,,,0.00,WUHU216DAVISVP2,2013-10-01 10:03:00,
2013-10-01 03:08:00,62.9,29.1,29.90,North,0,0.0,0.0,28,0.00,,,0.00,WUHU216DAVISVP2,2013-10-01 10:08:00,
2013-10-01 03:13:00,60.2,28.4,29.90,North,0,0.0,0.0,30,0.00,,,0.00,WUHU216DAVISVP2,2013-10-01 10:13:00,
2013-10-01 03:18:00,57.7,27.8,29.90,North,0,0.0,0.0,32,0.00,,,0.00,WUHU216DAVISVP2,2013-10-01 10:18:00,
2013-10-01 03:23:00,55.8,27.6,29.90,West,274,2.0,3.0,34,0.00,,,0.00,WUHU216DAVISVP2,2013-10-01 10:23:00,
2013-10-01 03:28:00,54.9,27.5,29.90,West,276,1.0,2.0,35,0.00,,,0.00,WUHU216DAVISVP2,2013-10-01 10:28:00,
2013-10-01 03:33:00,54.6,27.3,29.90,North,0,0.0,0.0,35,0.00,,,0.00,WUHU216DAVISVP2,2013-10-01 10:33:00,
2013-10-01 03:38:00,54.6,27.3,29.90,West,276,1.0,1.0,35,0.00,,,0.00,WUHU216DAVISVP2,2013-10-01 10:38:00,
2013-10-01 03:43:00,53.7,27.8,29.90,WNW,295,2.0,3.0,37,0.00,,,0.00,WUHU216DAVISVP2,2013-10-01 10:43:00,
2013-10-01 03:48:00,52.7,27.6,29.90,NNW,345,2.0,3.0,38,0.00,,,0.00,WUHU216DAVISVP2,2013-10-01 10:48:00,
2013-10-01 03:53:00,51.9,28.1,29.90,North,350,2.0,4.0,40,0.00,,,0.00,WUHU216DAVISVP2,2013-10-01 10:53:00,
2013-10-01 03:58:00,51.0,27.9,29.90,NNW,343,2.0,3.0,41,0.00,,,0.00,WUHU216DAVISVP2,2013-10-01 10:58:00,
2013-10-01 04:04:00,53.6,27.1,29.90,NW,313,3.0,7.0,36,0.00,,,0.00,WUHU216DAVISVP2,2013-10-01 11:04:00,
2013-10-01 04:09:00,57.9,27.2,29.90,NW,314,5.0,8.0,31,0.00,,,0.00,WUHU216DAVISVP2,2013-10-01 11:09:00,
2013-10-01 04:14:00,60.3,26.9,29.90,NW,318,5.0,8.0,28,0.00,,,0.00,WUHU216DAVISVP2,2013-10-01 11:14:00,
2013-10-01 04:19:00,61.8,27.3,29.90,NW,315,5.0,10.0,27,0.00,,,0.00,WUHU216DAVISVP2,2013-10-01 11:19:00,
2013-10-01 04:24:00,62.2,27.6,29.90,NW,317,5.0,8.0,27,0.00,,,0.00,WUHU216DAVISVP2,2013-10-01 11:24:00,
2013-10-01 04:29:00,62.3,27.7,29.90,NW,320,5.0,8.0,27,0.00,,,0.00,WUHU216DAVISVP2,2013-10-01 11:29:00,
2013-10-01 04:34:00,62.2,27.6,29.90,NW,319,4.0,6.0,27,0.00,,,0.00,WUHU216DAVISVP2,2013-10-01 11:34:00,
2013-10-01 04:39:00,62.1,27.5,29.90,NW,320,4.0,7.0,27,0.00,,,0.00,WUHU216DAVISVP2,2013-10-01 11:39:00,
2013-10-01 04:44:00,62.2,27.6,29.90,NW,315,4.0,9.0,27,0.00,,,0.00,WUHU216DAVISVP2,2013-10-01 11:44:00,
2013-10-01 04:49:00,62.3,27.7,29.90,NW,319,4.0,9.0,27,0.00,,,0.00,WUHU216DAVISVP2,2013-10-01 11:49:00,
2013-10-01 04:54:00,62.6,28.0,29.90,NW,315,4.0,7.0,27,0.00,,,0.00,WUHU216DAVISVP2,2013-10-01 11:54:00,
2013-10-01 04:59:00,62.8,27.2,29.90,NW,314,4.0,8.0,26,0.00,,,0.00,WUHU216DAVISVP2,2013-10-01 11:59:00,
2013-10-01 05:04:00,62.9,28.2,29.90,NW,323,3.0,7.0,27,0.00,,,0.00,WUHU216DAVISVP2,2013-10-01 12:04:00,
2013-10-01 05:09:00,62.2,27.6,29.90,NNW,327,2.0,4.0,27,0.00,,,0.00,WUHU216DAVISVP2,2013-10-01 12:09:00,
2013-10-01 05:14:00,61.7,28.1,29.91,NW,321,2.0,3.0,28,0.00,,,0.00,WUHU216DAVISVP2,2013-10-01 12:14:00,
2013-10-01 05:19:00,61.0,28.3,29.91,NNW,332,1.0,2.0,29,0.00,,,0.00,WUHU216DAVISVP2,2013-10-01 12:19:00,
2013-10-01 05:25:00,60.0,29.0,29.91,North,0,0.0,0.0,31,0.00,,,0.00,WUHU216DAVISVP2,2013-10-01 12:25:00,
2013-10-01 05:30:00,58.1,28.9,29.92,North,0,0.0,0.0,33,0.00,,,0.00,WUHU216DAVISVP2,2013-10-01 12:30:00,
2013-10-01 05:35:00,56.5,28.9,29.92,North,0,0.0,0.0,35,0.00,,,0.00,WUHU216DAVISVP2,2013-10-01 12:35:00,
2013-10-01 05:40:00,55.0,29.0,29.92,North,0,0.0,0.0,37,0.00,,,0.00,WUHU216DAVISVP2,2013-10-01 12:40:00,
2013-10-01 05:45:00,53.2,28.7,29.92,NNW,333,1.0,2.0,39,0.00,,,0.00,WUHU216DAVISVP2,2013-10-01 12:45:00,
2013-10-01 05:50:00,51.4,28.3,29.92,NNW,333,2.0,3.0,41,0.00,,,0.00,WUHU216DAVISVP2,2013-10-01 12:50:00,
2013-10-01 05:55:00,49.8,28.1,29.92,NNW,334,2.0,3.0,43,0.00,,,0.00,WUHU216DAVISVP2,2013-10-01 12:55:00,
2013-10-01 06:00:00,49.6,27.9,29.93,NNW,327,2.0,3.0,43,0.00,,,0.00,WUHU216DAVISVP2,2013-10-01 13:00:00,
2013-10-01 06:06:00,50.6,28.2,29.93,North,0,0.0,0.0,42,0.00,,,0.00,WUHU216DAVISVP2,2013-10-01 13:06:00,
2013-10-01 06:11:00,50.5,29.3,29.93,NNW,331,3.0,4.0,44,0.00,,,0.00,WUHU216DAVISVP2,2013-10-01 13:11:00,
2013-10-01 06:16:00,49.8,29.2,29.93,NNW,341,3.0,4.0,45,0.00,,,0.00,WUHU216DAVISVP2,2013-10-01 13:16:00,
2013-10-01 06:21:00,49.3,29.3,29.93,NNW,343,2.0,3.0,46,0.00,,,0.00,WUHU216DAVISVP2,2013-10-01 13:21:00,
2013-10-01 06:26:00,49.0,29.6,29.93,North,352,2.0,4.0,47,0.00,,,0.00,WUHU216DAVISVP2,2013-10-01 13:26:00,
2013-10-01 06:31:00,48.6,29.7,29.93,North,353,3.0,4.0,48,0.00,,,0.00,WUHU216DAVISVP2,2013-10-01 13:31:00,
2013-10-01 06:36:00,48.5,29.6,29.93,North,349,3.0,5.0,48,0.00,,,0.00,WUHU216DAVISVP2,2013-10-01 13:36:00,
2013-10-01 06:41:00,49.4,30.5,29.93,NNW,334,2.0,4.0,48,0.00,,,0.00,WUHU216DAVISVP2,2013-10-01 13:41:00,
2013-10-01 06:46:00,51.1,31.5,29.93,NNW,332,2.0,3.0,47,0.00,,,0.00,WUHU216DAVISVP2,2013-10-01 13:46:00,
2013-10-01 06:51:00,52.5,32.2,29.93,NNW,333,2.0,3.0,46,0.00,,,0.00,WUHU216DAVISVP2,2013-10-01 13:51:00,
2013-10-01 06:56:00,53.7,32.8,29.93,NNW,333,2.0,4.0,45,0.00,,,0.00,WUHU216DAVISVP2,2013-10-01 13:56:00,
2013-10-01 07:02:00,54.7,34.2,29.93,NNW,333,2.0,3.0,46,0.00,,,0.00,WUHU216DAVISVP2,2013-10-01 14:02:00,
2013-10-01 07:07:00,56.2,35.6,29.93,NNW,333,1.0,2.0,46,0.00,,,0.00,WUHU216DAVISVP2,2013-10-01 14:07:00,
2013-10-01 07:12:00,57.8,36.5,29.93,NNW,333,1.0,2.0,45,0.00,,,0.00,WUHU216DAVISVP2,2013-10-01 14:12:00,
2013-10-01 07:17:00,59.4,36.8,29.94,NNW,333,1.0,2.0,43,0.00,,,0.00,WUHU216DAVISVP2,2013-10-01 14:17:00,
2013-10-01 07:22:00,60.9,36.9,29.93,NNW,333,1.0,2.0,41,0.00,,,0.00,WUHU216DAVISVP2,2013-10-01 14:22:00,
2013-10-01 07:27:00,62.6,37.1,29.94,North,0,0.0,0.0,39,0.00,,,0.00,WUHU216DAVISVP2,2013-10-01 14:27:00,
2013-10-01 07:32:00,64.5,36.0,29.94,North,0,0.0,0.0,35,0.00,,,0.00,WUHU216DAVISVP2,2013-10-01 14:32:00,
2013-10-01 07:37:00,66.0,33.5,29.94,North,0,0.0,0.0,30,0.00,,,0.00,WUHU216DAVISVP2,2013-10-01 14:37:00,
2013-10-01 07:42:00,67.6,31.3,29.94,North,0,0.0,0.0,26,0.00,,,0.00,WUHU216DAVISVP2,2013-10-01 14:42:00,
2013-10-01 07:47:00,69.0,30.6,29.94,North,0,0.0,0.0,24,0.00,,,0.00,WUHU216DAVISVP2,2013-10-01 14:47:00,
2013-10-01 07:52:00,70.3,31.7,29.94,North,0,0.0,0.0,24,0.00,,,0.00,WUHU216DAVISVP2,2013-10-01 14:52:00,
2013-10-01 07:58:00,71.2,30.3,29.94,North,0,0.0,0.0,22,0.00,,,0.00,WUHU216DAVISVP2,2013-10-01 14:58:00,
2013-10-01 08:03:00,71.9,32.0,29.94,NNW,336,1.0,1.0,23,0.00,,,0.00,WUHU216DAVISVP2,2013-10-01 15:03:00,
2013-10-01 08:08:00,72.3,31.2,29.94,NNW,338,1.0,1.0,22,0.00,,,0.00,WUHU216DAVISVP2,2013-10-01 15:08:00,
2013-10-01 08:13:00,72.5,32.5,29.94,NNW,337,1.0,1.0,23,0.00,,,0.00,WUHU216DAVISVP2,2013-10-01 15:13:00,
2013-10-01 08:18:00,72.8,30.5,29.94,North,350,1.0,2.0,21,0.00,,,0.00,WUHU216DAVISVP2,2013-10-01 15:18:00,
2013-10-01 08:23:00,73.0,31.8,29.94,SE,134,2.0,2.0,22,0.00,,,0.00,WUHU216DAVISVP2,2013-10-01 15:23:00,
2013-10-01 08:28:00,73.4,32.2,29.95,North,0,0.0,0.0,22,0.00,,,0.00,WUHU216DAVISVP2,2013-10-01 15:28:00,
2013-10-01 08:33:00,73.7,32.4,29.95,SSE,147,1.0,2.0,22,0.00,,,0.00,WUHU216DAVISVP2,2013-10-01 15:33:00,
2013-10-01 08:38:00,73.6,32.3,29.94,SSE,155,1.0,1.0,22,0.00,,,0.00,WUHU216DAVISVP2,2013-10-01 15:38:00,
2013-10-01 08:43:00,73.8,33.6,29.95,WSW,249,2.0,3.0,23,0.00,,,0.00,WUHU216DAVISVP2,2013-10-01 15:43:00,
2013-10-01 08:48:00,73.9,32.6,29.95,WSW,251,3.0,5.0,22,0.00,,,0.00,WUHU216DAVISVP2,2013-10-01 15:48:00,
2013-10-01 08:54:00,73.8,32.5,29.95,West,259,3.0,6.0,22,0.00,,,0.00,WUHU216DAVISVP2,2013-10-01 15:54:00,
2013-10-01 08:59:00,73.7,33.5,29.95,West,259,3.0,5.0,23,0.00,,,0.00,WUHU216DAVISVP2,2013-10-01 15:59:00,
2013-10-01 09:04:00,73.7,31.3,29.95,WSW,253,4.0,7.0,21,0.00,,,0.00,WUHU216DAVISVP2,2013-10-01 16:04:00,
2013-10-01 09:09:00,73.6,32.3,29.95,West,259,3.0,6.0,22,0.00,,,0.00,WUHU216DAVISVP2,2013-10-01 16:09:00,
2013-10-01 09:14:00,73.7,32.4,29.95,West,267,4.0,6.0,22,0.00,,,0.00,WUHU216DAVISVP2,2013-10-01 16:14:00,
2013-10-01 09:19:00,74.2,31.7,29.95,West,259,3.0,7.0,21,0.00,,,0.00,WUHU216DAVISVP2,2013-10-01 16:19:00,
2013-10-01 09:24:00,74.4,31.9,29.95,WNW,296,4.0,7.0,21,0.00,,,0.00,WUHU216DAVISVP2,2013-10-01 16:24:00,
2013-10-01 09:30:00,74.3,32.9,29.95,West,260,3.0,7.0,22,0.00,,,0.00,WUHU216DAVISVP2,2013-10-01 16:30:00,
2013-10-01 09:35:00,74.6,33.2,29.95,WSW,253,4.0,9.0,22,0.00,,,0.00,WUHU216DAVISVP2,2013-10-01 16:35:00,
2013-10-01 09:40:00,74.8,33.3,29.95,WSW,254,4.0,8.0,22,0.00,,,0.00,WUHU216DAVISVP2,2013-10-01 16:40:00,
2013-10-01 09:45:00,75.0,33.5,29.95,West,279,4.0,9.0,22,0.00,,,0.00,WUHU216DAVISVP2,2013-10-01 16:45:00,
2013-10-01 09:50:00,75.1,32.4,29.95,WSW,251,5.0,10.0,21,0.00,,,0.00,WUHU216DAVISVP2,2013-10-01 16:50:00,
2013-10-01 09:55:00,74.9,32.3,29.95,WSW,258,6.0,11.0,21,0.00,,,0.00,WUHU216DAVISVP2,2013-10-01 16:55:00,
2013-10-01 10:00:00,75.3,33.8,29.95,West,266,5.0,9.0,22,0.00,,,0.00,WUHU216DAVISVP2,2013-10-01 17:00:00,
2013-10-01 10:05:00,75.5,32.8,29.95,West,262,5.0,12.0,21,0.00,,,0.00,WUHU216DAVISVP2,2013-10-01 17:05:00,
2013-10-01 10:10:00,75.8,34.2,29.95,WNW,292,5.0,12.0,22,0.00,,,0.00,WUHU216DAVISVP2,2013-10-01 17:10:00,
2013-10-01 10:15:00,76.4,33.5,29.95,WNW,291,5.0,10.0,21,0.00,,,0.00,WUHU216DAVISVP2,2013-10-01 17:15:00,
2013-10-01 10:20:00,76.5,33.6,29.95,WNW,298,3.0,8.0,21,0.00,,,0.00,WUHU216DAVISVP2,2013-10-01 17:20:00,
2013-10-01 10:26:00,76.7,33.8,29.95,West,261,6.0,15.0,21,0.00,,,0.00,WUHU216DAVISVP2,2013-10-01 17:26:00,
2013-10-01 10:31:00,76.6,34.8,29.95,West,275,6.0,10.0,22,0.00,,,0.00,WUHU216DAVISVP2,2013-10-01 17:31:00,
2013-10-01 10:36:00,76.8,35.0,29.95,WSW,242,4.0,7.0,22,0.00,,,0.00,WUHU216DAVISVP2,2013-10-01 17:36:00,
2013-10-01 10:41:00,77.0,35.2,29.95,WNW,287,6.0,13.0,22,0.00,,,0.00,WUHU216DAVISVP2,2013-10-01 17:41:00,
2013-10-01 10:46:00,77.2,35.3,29.95,WSW,239,4.0,10.0,22,0.00,,,0.00,WUHU216DAVISVP2,2013-10-01 17:46:00,
2013-10-01 10:51:00,77.4,34.4,29.95,WSW,245,6.0,11.0,21,0.00,,,0.00,WUHU216DAVISVP2,2013-10-01 17:51:00,
2013-10-01 10:56:00,77.0,35.2,29.95,West,269,5.0,11.0,22,0.00,,,0.00,WUHU216DAVISVP2,2013-10-01 17:56:00,
2013-10-01 11:01:00,77.2,34.2,29.94,NW,309,5.0,10.0,21,0.00,,,0.00,WUHU216DAVISVP2,2013-10-01 18:01:00,
2013-10-01 11:06:00,77.1,35.3,29.95,WSW,237,5.0,12.0,22,0.00,,,0.00,WUHU216DAVISVP2,2013-10-01 18:06:00,
2013-10-01 11:11:00,77.0,36.3,29.94,West,261,5.0,10.0,23,0.00,,,0.00,WUHU216DAVISVP2,2013-10-01 18:11:00,
2013-10-01 11:16:00,77.3,34.3,29.94,West,261,6.0,11.0,21,0.00,,,0.00,WUHU216DAVISVP2,2013-10-01 18:16:00,
2013-10-01 11:21:00,77.0,35.2,29.94,WSW,241,3.0,9.0,22,0.00,,,0.00,WUHU216DAVISVP2,2013-10-01 18:21:00,
2013-10-01 11:26:00,77.5,35.6,29.94,SW,236,3.0,8.0,22,0.00,,,0.00,WUHU216DAVISVP2,2013-10-01 18:26:00,
2013-10-01 11:32:00,78.1,37.2,29.94,West,276,5.0,10.0,23,0.00,,,0.00,WUHU216DAVISVP2,2013-10-01 18:32:00,
2013-10-01 11:37:00,78.4,36.3,29.94,WNW,296,4.0,9.0,22,0.00,,,0.00,WUHU216DAVISVP2,2013-10-01 18:37:00,
2013-10-01 11:42:00,78.4,34.0,29.94,SW,225,4.0,9.0,20,0.00,,,0.00,WUHU216DAVISVP2,2013-10-01 18:42:00,
2013-10-01 11:47:00,78.7,35.4,29.94,West,260,4.0,10.0,21,0.00,,,0.00,WUHU216DAVISVP2,2013-10-01 18:47:00,
2013-10-01 11:52:00,79.2,35.8,29.94,West,268,4.0,11.0,21,0.00,,,0.00,WUHU216DAVISVP2,2013-10-01 18:52:00,
2013-10-01 11:57:00,78.7,34.2,29.93,West,267,4.0,8.0,20,0.00,,,0.00,WUHU216DAVISVP2,2013-10-01 18:57:00,
2013-10-01 12:02:00,78.8,36.7,29.93,West,272,4.0,9.0,22,0.00,,,0.00,WUHU216DAVISVP2,2013-10-01 19:02:00,
2013-10-01 12:07:00,79.1,35.8,29.93,West,272,4.0,9.0,21,0.00,,,0.00,WUHU216DAVISVP2,2013-10-01 19:07:00,
2013-10-01 12:12:00,79.1,36.9,29.93,West,263,5.0,9.0,22,0.00,,,0.00,WUHU216DAVISVP2,2013-10-01 19:12:00,
2013-10-01 12:17:00,79.0,36.8,29.93,West,272,5.0,11.0,22,0.00,,,0.00,WUHU216DAVISVP2,2013-10-01 19:17:00,
2013-10-01 12:23:00,79.4,36.0,29.93,West,276,6.0,13.0,21,0.00,,,0.00,WUHU216DAVISVP2,2013-10-01 19:23:00,
2013-10-01 12:28:00,79.1,35.8,29.92,West,280,5.0,10.0,21,0.00,,,0.00,WUHU216DAVISVP2,2013-10-01 19:28:00,
2013-10-01 12:33:00,79.2,37.0,29.92,West,260,5.0,9.0,22,0.00,,,0.00,WUHU216DAVISVP2,2013-10-01 19:33:00,
2013-10-01 12:38:00,79.6,36.2,29.92,SW,229,5.0,9.0,21,0.00,,,0.00,WUHU216DAVISVP2,2013-10-01 19:38:00,
2013-10-01 12:43:00,79.5,34.9,29.92,SW,234,4.0,8.0,20,0.00,,,0.00,WUHU216DAVISVP2,2013-10-01 19:43:00,
2013-10-01 12:48:00,79.7,36.3,29.91,WSW,253,4.0,9.0,21,0.00,,,0.00,WUHU216DAVISVP2,2013-10-01 19:48:00,
2013-10-01 12:53:00,80.4,35.6,29.91,WNW,283,5.0,8.0,20,0.00,,,0.00,WUHU216DAVISVP2,2013-10-01 19:53:00,
2013-10-01 12:58:00,80.4,35.6,29.91,NW,306,3.0,8.0,20,0.00,,,0.00,WUHU216DAVISVP2,2013-10-01 19:58:00,
2013-10-01 13:03:00,80.6,37.0,29.90,NW,306,3.0,6.0,21,0.00,,,0.00,WUHU216DAVISVP2,2013-10-01 20:03:00,
2013-10-01 13:08:00,80.7,37.1,29.90,NNW,329,4.0,8.0,21,0.00,,,0.00,WUHU216DAVISVP2,2013-10-01 20:08:00,
2013-10-01 13:13:00,81.3,36.4,29.90,SW,235,6.0,12.0,20,0.00,,,0.00,WUHU216DAVISVP2,2013-10-01 20:13:00,
2013-10-01 13:20:00,81.5,36.5,29.89,West,260,5.0,11.0,20,0.00,,,0.00,WUHU216DAVISVP2,2013-10-01 20:20:00,
2013-10-01 13:29:00,80.9,34.7,29.89,NNW,333,5.0,9.0,19,0.00,,,0.00,WUHU216DAVISVP2,2013-10-01 20:29:00,
2013-10-01 13:34:00,81.1,34.9,29.89,West,281,6.0,10.0,19,0.00,,,0.00,WUHU216DAVISVP2,2013-10-01 20:34:00,
2013-10-01 13:39:00,81.3,35.1,29.89,WSW,245,6.0,11.0,19,0.00,,,0.00,WUHU216DAVISVP2,2013-10-01 20:39:00,
2013-10-01 13:44:00,81.4,33.8,29.89,WSW,251,4.0,8.0,18,0.00,,,0.00,WUHU216DAVISVP2,2013-10-01 20:44:00,
2013-10-01 13:49:00,81.5,35.2,29.88,WNW,288,4.0,8.0,19,0.00,,,0.00,WUHU216DAVISVP2,2013-10-01 20:49:00,
2013-10-01 13:54:00,81.6,34.0,29.88,NW,308,5.0,9.0,18,0.00,,,0.00,WUHU216DAVISVP2,2013-10-01 20:54:00,
2013-10-01 14:00:00,81.6,34.0,29.88,NW,324,5.0,12.0,18,0.00,,,0.00,WUHU216DAVISVP2,2013-10-01 21:00:00,
2013-10-01 14:05:00,81.8,34.1,29.88,WNW,294,5.0,9.0,18,0.00,,,0.00,WUHU216DAVISVP2,2013-10-01 21:05:00,
2013-10-01 14:10:00,82.2,35.8,29.88,West,275,5.0,8.0,19,0.00,,,0.00,WUHU216DAVISVP2,2013-10-01 21:10:00,
2013-10-01 14:15:00,82.2,34.5,29.88,West,279,3.0,7.0,18,0.00,,,0.00,WUHU216DAVISVP2,2013-10-01 21:15:00,
2013-10-01 14:20:00,81.9,35.6,29.88,South,171,4.0,8.0,19,0.00,,,0.00,WUHU216DAVISVP2,2013-10-01 21:20:00,
2013-10-01 14:25:00,82.1,35.7,29.88,WSW,239,3.0,8.0,19,0.00,,,0.00,WUHU216DAVISVP2,2013-10-01 21:25:00,
2013-10-01 14:30:00,82.2,35.8,29.87,SSW,194,2.0,4.0,19,0.00,,,0.00,WUHU216DAVISVP2,2013-10-01 21:30:00,
2013-10-01 14:35:00,82.6,37.4,29.87,WSW,257,2.0,8.0,20,0.00,,,0.00,WUHU216DAVISVP2,2013-10-01 21:35:00,
2013-10-01 14:40:00,82.6,37.4,29.87,West,270,4.0,8.0,20,0.00,,,0.00,WUHU216DAVISVP2,2013-10-01 21:40:00,
2013-10-01 14:45:00,82.2,37.1,29.87,SW,227,5.0,9.0,20,0.00,,,0.00,WUHU216DAVISVP2,2013-10-01 21:45:00,
2013-10-01 14:51:00,81.9,36.9,29.87,West,261,4.0,8.0,20,0.00,,,0.00,WUHU216DAVISVP2,2013-10-01 21:51:00,
2013-10-01 14:56:00,82.2,37.1,29.87,West,266,5.0,12.0,20,0.00,,,0.00,WUHU216DAVISVP2,2013-10-01 21:56:00,
2013-10-01 15:01:00,82.4,37.3,29.86,SW,234,4.0,10.0,20,0.00,,,0.00,WUHU216DAVISVP2,2013-10-01 22:01:00,
2013-10-01 15:06:00,82.7,37.5,29.87,West,275,5.0,10.0,20,0.00,,,0.00,WUHU216DAVISVP2,2013-10-01 22:06:00,
2013-10-01 15:11:00,82.7,37.5,29.86,WNW,300,3.0,8.0,20,0.00,,,0.00,WUHU216DAVISVP2,2013-10-01 22:11:00,
2013-10-01 15:16:00,82.7,37.5,29.86,NW,308,3.0,5.0,20,0.00,,,0.00,WUHU216DAVISVP2,2013-10-01 22:16:00,
2013-10-01 15:21:00,82.8,37.6,29.86,SSW,201,3.0,7.0,20,0.00,,,0.00,WUHU216DAVISVP2,2013-10-01 22:21:00,
2013-10-01 15:26:00,83.1,37.9,29.86,West,275,3.0,7.0,20,0.00,,,0.00,WUHU216DAVISVP2,2013-10-01 22:26:00,
2013-10-01 15:31:00,83.6,37.0,29.86,WSW,257,5.0,11.0,19,0.00,,,0.00,WUHU216DAVISVP2,2013-10-01 22:31:00,
2013-10-01 15:37:00,82.8,36.3,29.86,West,261,4.0,9.0,19,0.00,,,0.00,WUHU216DAVISVP2,2013-10-01 22:37:00,
2013-10-01 15:42:00,82.5,37.4,29.86,West,278,4.0,10.0,20,0.00,,,0.00,WUHU216DAVISVP2,2013-10-01 22:42:00,
2013-10-01 15:47:00,82.5,37.4,29.86,WNW,297,4.0,10.0,20,0.00,,,0.00,WUHU216DAVISVP2,2013-10-01 22:47:00,
2013-10-01 15:52:00,82.4,37.3,29.86,WNW,285,5.0,10.0,20,0.00,,,0.00,WUHU216DAVISVP2,2013-10-01 22:52:00,
2013-10-01 15:57:00,82.3,37.2,29.85,WNW,302,4.0,11.0,20,0.00,,,0.00,WUHU216DAVISVP2,2013-10-01 22:57:00,
2013-10-01 16:02:00,82.3,37.2,29.85,NW,315,4.0,8.0,20,0.00,,,0.00,WUHU216DAVISVP2,2013-10-01 23:02:00,
2013-10-01 16:07:00,82.2,37.1,29.85,West,278,5.0,10.0,20,0.00,,,0.00,WUHU216DAVISVP2,2013-10-01 23:07:00,
2013-10-01 16:12:00,81.9,36.9,29.85,WNW,284,6.0,9.0,20,0.00,,,0.00,WUHU216DAVISVP2,2013-10-01 23:12:00,
2013-10-01 16:17:00,81.8,36.8,29.85,WNW,302,4.0,8.0,20,0.00,,,0.00,WUHU216DAVISVP2,2013-10-01 23:17:00,
2013-10-01 16:22:00,82.1,37.0,29.85,NW,321,2.0,4.0,20,0.00,,,0.00,WUHU216DAVISVP2,2013-10-01 23:22:00,
2013-10-01 16:27:00,82.1,37.0,29.85,West,277,5.0,9.0,20,0.00,,,0.00,WUHU216DAVISVP2,2013-10-01 23:27:00,
2013-10-01 16:32:00,81.8,36.8,29.85,West,279,5.0,8.0,20,0.00,,,0.00,WUHU216DAVISVP2,2013-10-01 23:32:00,
2013-10-01 16:37:00,81.4,36.4,29.85,West,261,4.0,7.0,20,0.00,,,0.00,WUHU216DAVISVP2,2013-10-01 23:37:00,
2013-10-01 16:42:00,81.6,36.6,29.85,West,278,2.0,5.0,20,0.00,,,0.00,WUHU216DAVISVP2,2013-10-01 23:42:00,
2013-10-01 16:47:00,81.4,36.4,29.86,West,276,5.0,10.0,20,0.00,,,0.00,WUHU216DAVISVP2,2013-10-01 23:47:00,
2013-10-01 16:52:00,81.5,36.5,29.85,West,278,3.0,8.0,20,0.00,,,0.00,WUHU216DAVISVP2,2013-10-01 23:52:00,
2013-10-01 16:57:00,81.1,36.2,29.85,West,265,5.0,10.0,20,0.00,,,0.00,WUHU216DAVISVP2,2013-10-01 23:57:00,
2013-10-01 17:03:00,80.7,35.9,29.85,West,280,4.0,9.0,20,0.00,,,0.00,WUHU216DAVISVP2,2013-10-02 00:03:00,
2013-10-01 17:08:00,80.5,35.7,29.85,West,277,3.0,8.0,20,0.00,,,0.00,WUHU216DAVISVP2,2013-10-02 00:08:00,
2013-10-01 17:13:00,80.4,35.6,29.85,NW,308,3.0,7.0,20,0.00,,,0.00,WUHU216DAVISVP2,2013-10-02 00:13:00,
2013-10-01 17:18:00,80.0,35.3,29.85,NW,306,3.0,7.0,20,0.00,,,0.00,WUHU216DAVISVP2,2013-10-02 00:18:00,
2013-10-01 17:23:00,79.7,36.3,29.85,NW,306,2.0,5.0,21,0.00,,,0.00,WUHU216DAVISVP2,2013-10-02 00:23:00,
2013-10-01 17:28:00,79.4,36.0,29.85,West,281,3.0,6.0,21,0.00,,,0.00,WUHU216DAVISVP2,2013-10-02 00:28:00,
2013-10-01 17:33:00,79.1,35.8,29.85,West,281,2.0,5.0,21,0.00,,,0.00,WUHU216DAVISVP2,2013-10-02 00:33:00,
2013-10-01 17:38:00,78.6,35.4,29.86,WNW,299,3.0,8.0,21,0.00,,,0.00,WUHU216DAVISVP2,2013-10-02 00:38:00,
2013-10-01 17:43:00,78.1,34.9,29.86,NW,306,2.0,6.0,21,0.00,,,0.00,WUHU216DAVISVP2,2013-10-02 00:43:00,
2013-10-01 17:48:00,77.5,34.4,29.86,NW,311,3.0,6.0,21,0.00,,,0.00,WUHU216DAVISVP2,2013-10-02 00:48:00,
2013-10-01 17:53:00,76.8,35.0,29.86,WNW,296,3.0,5.0,22,0.00,,,0.00,WUHU216DAVISVP2,2013-10-02 00:53:00,
2013-10-01 17:58:00,76.0,34.3,29.86,WNW,294,2.0,4.0,22,0.00,,,0.00,WUHU216DAVISVP2,2013-10-02 00:58:00,
2013-10-01 18:03:00,75.6,35.1,29.86,WNW,293,4.0,7.0,23,0.00,,,0.00,WUHU216DAVISVP2,2013-10-02 01:03:00,
2013-10-01 18:08:00,75.3,34.9,29.86,NW,304,3.0,7.0,23,0.00,,,0.00,WUHU216DAVISVP2,2013-10-02 01:08:00,
2013-10-01 18:13:00,75.1,34.7,29.86,NW,308,3.0,6.0,23,0.00,,,0.00,WUHU216DAVISVP2,2013-10-02 01:13:00,
2013-10-01 18:18:00,74.6,35.3,29.86,NW,306,4.0,7.0,24,0.00,,,0.00,WUHU216DAVISVP2,2013-10-02 01:18:00,
2013-10-01 18:23:00,74.5,35.2,29.86,WNW,295,4.0,6.0,24,0.00,,,0.00,WUHU216DAVISVP2,2013-10-02 01:23:00,
2013-10-01 18:28:00,74.5,35.2,29.86,WNW,303,5.0,8.0,24,0.00,,,0.00,WUHU216DAVISVP2,2013-10-02 01:28:00,
2013-10-01 18:34:00,74.3,35.1,29.86,WNW,301,4.0,7.0,24,0.00,,,0.00,WUHU216DAVISVP2,2013-10-02 01:34:00,
2013-10-01 18:39:00,73.7,35.6,29.86,NW,317,2.0,7.0,25,0.00,,,0.00,WUHU216DAVISVP2,2013-10-02 01:39:00,
2013-10-01 18:44:00,72.6,34.6,29.87,NW,317,3.0,5.0,25,0.00,,,0.00,WUHU216DAVISVP2,2013-10-02 01:44:00,
2013-10-01 18:49:00,71.8,34.9,29.87,NW,315,3.0,6.0,26,0.00,,,0.00,WUHU216DAVISVP2,2013-10-02 01:49:00,
2013-10-01 18:54:00,71.4,34.6,29.87,NW,310,3.0,6.0,26,0.00,,,0.00,WUHU216DAVISVP2,2013-10-02 01:54:00,
2013-10-01 18:59:00,71.2,34.4,29.87,WNW,302,4.0,8.0,26,0.00,,,0.00,WUHU216DAVISVP2,2013-10-02 01:59:00,
2013-10-01 19:04:00,71.3,34.5,29.87,NW,309,4.0,7.0,26,0.00,,,0.00,WUHU216DAVISVP2,2013-10-02 02:04:00,
2013-10-01 19:09:00,71.1,34.3,29.87,NW,309,4.0,6.0,26,0.00,,,0.00,WUHU216DAVISVP2,2013-10-02 02:09:00,
2013-10-01 19:14:00,70.9,35.1,29.87,NW,308,4.0,7.0,27,0.00,,,0.00,WUHU216DAVISVP2,2013-10-02 02:14:00,
2013-10-01 19:19:00,70.8,35.0,29.87,NW,306,5.0,8.0,27,0.00,,,0.00,WUHU216DAVISVP2,2013-10-02 02:19:00,
2013-10-01 19:24:00,70.8,35.0,29.87,NW,304,5.0,7.0,27,0.00,,,0.00,WUHU216DAVISVP2,2013-10-02 02:24:00,
2013-10-01 19:29:00,70.9,35.1,29.87,NW,306,5.0,8.0,27,0.00,,,0.00,WUHU216DAVISVP2,2013-10-02 02:29:00,
2013-10-01 19:34:00,70.9,35.1,29.87,NW,306,5.0,7.0,27,0.00,,,0.00,WUHU216DAVISVP2,2013-10-02 02:34:00,
2013-10-01 19:39:00,70.9,35.1,29.87,NW,304,4.0,7.0,27,0.00,,,0.00,WUHU216DAVISVP2,2013-10-02 02:39:00,
2013-10-01 19:44:00,70.8,35.0,29.87,NW,306,4.0,6.0,27,0.00,,,0.00,WUHU216DAVISVP2,2013-10-02 02:44:00,
2013-10-01 19:49:00,70.7,34.9,29.88,NW,304,4.0,8.0,27,0.00,,,0.00,WUHU216DAVISVP2,2013-10-02 02:49:00,
2013-10-01 19:54:00,70.8,35.0,29.88,NW,309,4.0,6.0,27,0.00,,,0.00,WUHU216DAVISVP2,2013-10-02 02:54:00,
2013-10-01 19:59:00,70.7,34.9,29.88,NW,310,3.0,5.0,27,0.00,,,0.00,WUHU216DAVISVP2,2013-10-02 02:59:00,
2013-10-01 20:05:00,70.4,34.7,29.88,NW,313,3.0,6.0,27,0.00,,,0.00,WUHU216DAVISVP2,2013-10-02 03:05:00,
2013-10-01 20:10:00,70.2,34.5,29.88,NW,311,3.0,5.0,27,0.00,,,0.00,WUHU216DAVISVP2,2013-10-02 03:10:00,
2013-10-01 20:15:00,69.9,35.1,29.88,NW,312,3.0,7.0,28,0.00,,,0.00,WUHU216DAVISVP2,2013-10-02 03:15:00,
2013-10-01 20:20:00,69.9,35.1,29.88,NW,313,4.0,7.0,28,0.00,,,0.00,WUHU216DAVISVP2,2013-10-02 03:20:00,
2013-10-01 20:25:00,70.2,35.4,29.88,NW,312,4.0,6.0,28,0.00,,,0.00,WUHU216DAVISVP2,2013-10-02 03:25:00,
2013-10-01 20:30:00,70.3,34.6,29.89,NW,312,3.0,5.0,27,0.00,,,0.00,WUHU216DAVISVP2,2013-10-02 03:30:00,
2013-10-01 20:35:00,70.1,35.3,29.89,NW,307,3.0,5.0,28,0.00,,,0.00,WUHU216DAVISVP2,2013-10-02 03:35:00,
2013-10-01 20:40:00,70.0,35.2,29.89,NW,304,4.0,6.0,28,0.00,,,0.00,WUHU216DAVISVP2,2013-10-02 03:40:00,
2013-10-01 20:45:00,70.3,34.6,29.89,WNW,301,5.0,7.0,27,0.00,,,0.00,WUHU216DAVISVP2,2013-10-02 03:45:00,
2013-10-01 20:50:00,70.7,34.9,29.89,WNW,300,5.0,8.0,27,0.00,,,0.00,WUHU216DAVISVP2,2013-10-02 03:50:00,
2013-10-01 20:55:00,70.8,35.0,29.89,WNW,301,4.0,7.0,27,0.00,,,0.00,WUHU216DAVISVP2,2013-10-02 03:55:00,
2013-10-01 21:00:00,70.8,35.0,29.89,WNW,298,4.0,7.0,27,0.00,,,0.00,WUHU216DAVISVP2,2013-10-02 04:00:00,
2013-10-01 21:05:00,70.9,35.1,29.90,WNW,297,5.0,8.0,27,0.00,,,0.00,WUHU216DAVISVP2,2013-10-02 04:05:00,
2013-10-01 21:10:00,70.8,35.0,29.90,WNW,293,4.0,7.0,27,0.00,,,0.00,WUHU216DAVISVP2,2013-10-02 04:10:00,
2013-10-01 21:15:00,70.4,35.6,29.90,West,281,4.0,7.0,28,0.00,,,0.00,WUHU216DAVISVP2,2013-10-02 04:15:00,
2013-10-01 21:21:00,69.4,34.7,29.90,West,276,4.0,7.0,28,0.00,,,0.00,WUHU216DAVISVP2,2013-10-02 04:21:00,
2013-10-01 21:26:00,69.1,34.4,29.90,WNW,288,6.0,9.0,28,0.00,,,0.00,WUHU216DAVISVP2,2013-10-02 04:26:00,
2013-10-01 21:31:00,69.0,35.2,29.90,WNW,285,5.0,9.0,29,0.00,,,0.00,WUHU216DAVISVP2,2013-10-02 04:31:00,
2013-10-01 21:36:00,68.6,34.9,29.90,WNW,284,4.0,7.0,29,0.00,,,0.00,WUHU216DAVISVP2,2013-10-02 04:36:00,
2013-10-01 21:41:00,68.5,35.6,29.90,WNW,285,6.0,10.0,30,0.00,,,0.00,WUHU216DAVISVP2,2013-10-02 04:41:00,
2013-10-01 21:46:00,68.4,36.4,29.90,WNW,286,5.0,9.0,31,0.00,,,0.00,WUHU216DAVISVP2,2013-10-02 04:46:00,
2013-10-01 21:51:00,68.4,37.2,29.90,WNW,292,6.0,9.0,32,0.00,,,0.00,WUHU216DAVISVP2,2013-10-02 04:51:00,
2013-10-01 21:56:00,68.7,37.5,29.90,WNW,295,7.0,11.0,32,0.00,,,0.00,WUHU216DAVISVP2,2013-10-02 04:56:00,
2013-10-01 22:01:00,68.9,37.6,29.90,WNW,290,6.0,9.0,32,0.00,,,0.00,WUHU216DAVISVP2,2013-10-02 05:01:00,
2013-10-01 22:06:00,69.0,37.7,29.90,WNW,293,7.0,11.0,32,0.00,,,0.00,WUHU216DAVISVP2,2013-10-02 05:06:00,
2013-10-01 22:11:00,69.0,38.5,29.90,WNW,291,6.0,11.0,33,0.00,,,0.00,WUHU216DAVISVP2,2013-10-02 05:11:00,
2013-10-01 22:16:00,69.0,38.5,29.90,WNW,295,6.0,11.0,33,0.00,,,0.00,WUHU216DAVISVP2,2013-10-02 05:16:00,
2013-10-01 22:21:00,68.9,38.4,29.90,NW,305,5.0,9.0,33,0.00,,,0.00,WUHU216DAVISVP2,2013-10-02 05:21:00,
2013-10-01 22:26:00,68.3,37.1,29.90,NW,308,6.0,9.0,32,0.00,,,0.00,WUHU216DAVISVP2,2013-10-02 05:26:00,
2013-10-01 22:31:00,67.8,36.7,29.90,WNW,299,6.0,10.0,32,0.00,,,0.00,WUHU216DAVISVP2,2013-10-02 05:31:00,
2013-10-01 22:36:00,67.5,37.2,29.89,WNW,302,7.0,11.0,33,0.00,,,0.00,WUHU216DAVISVP2,2013-10-02 05:36:00,
2013-10-01 22:42:00,67.4,36.3,29.89,WNW,301,7.0,11.0,32,0.00,,,0.00,WUHU216DAVISVP2,2013-10-02 05:42:00,
2013-10-01 22:47:00,67.2,36.1,29.90,WNW,294,7.0,11.0,32,0.00,,,0.00,WUHU216DAVISVP2,2013-10-02 05:47:00,
2013-10-01 22:52:00,66.8,36.6,29.90,WNW,282,4.0,7.0,33,0.00,,,0.00,WUHU216DAVISVP2,2013-10-02 05:52:00,
2013-10-01 22:57:00,66.7,35.7,29.89,WNW,297,6.0,11.0,32,0.00,,,0.00,WUHU216DAVISVP2,2013-10-02 05:57:00,
2013-10-01 23:02:00,67.0,35.2,29.90,NW,308,7.0,10.0,31,0.00,,,0.00,WUHU216DAVISVP2,2013-10-02 06:02:00,
2013-10-01 23:07:00,67.0,35.2,29.90,NW,308,7.0,10.0,31,0.00,,,0.00,WUHU216DAVISVP2,2013-10-02 06:07:00,
2013-10-01 23:12:00,67.0,36.0,29.90,NW,304,8.0,13.0,32,0.00,,,0.00,WUHU216DAVISVP2,2013-10-02 06:12:00,
2013-10-01 23:17:00,67.1,36.0,29.90,WNW,303,8.0,12.0,32,0.00,,,0.00,WUHU216DAVISVP2,2013-10-02 06:17:00,
2013-10-01 23:22:00,66.8,36.6,29.90,NW,307,9.0,14.0,33,0.00,,,0.00,WUHU216DAVISVP2,2013-10-02 06:22:00,
2013-10-01 23:27:00,66.9,36.7,29.90,NW,307,8.0,11.0,33,0.00,,,0.00,WUHU216DAVISVP2,2013-10-02 06:27:00,
2013-10-01 23:32:00,66.5,36.3,29.90,NW,306,8.0,11.0,33,0.00,,,0.00,WUHU216DAVISVP2,2013-10-02 06:32:00,
2013-10-01 23:37:00,66.2,36.8,29.90,NW,307,7.0,11.0,34,0.00,,,0.00,WUHU216DAVISVP2,2013-10-02 06:37:00,
2013-10-01 23:42:00,65.9,37.3,29.90,NW,307,7.0,11.0,35,0.00,,,0.00,WUHU216DAVISVP2,2013-10-02 06:42:00,
2013-10-01 23:47:00,65.9,37.3,29.90,NW,307,7.0,10.0,35,0.00,,,0.00,WUHU216DAVISVP2,2013-10-02 06:47:00,
2013-10-01 23:52:00,65.9,37.3,29.90,NW,308,6.0,9.0,35,0.00,,,0.00,WUHU216DAVISVP2,2013-10-02 06:52:00,
2013-10-01 23:57:00,65.8,37.2,29.90,NW,308,7.0,10.0,35,0.00,,,0.00,WUHU216DAVISVP2,2013-10-02 06:57:00,